Location: Le Domaine
(47.0333°N, 76.5361°W)
Time: 20:58:05
(UTC-05:00)

S-56A Canister/Altair - Pass Details

Date: 21 November 2019
Orbit: 633 x 2499 km, 38.9° (Epoch: 06 December)

Event Time Altitude Azimuth Distance (km) Brightness Sun altitude
Rises 21:23:27 0° 272° (W) 4,021 11.8 -49.6°
Enters shadow 21:26:34 - 260° (W) 2,992 10.9 -50.0°
Reaches altitude 10° 21:27:28 10° 255° (WSW) 2,722 - -50.1°
Maximum altitude 21:31:30 18° 214° (SW) 1,918 - -50.7°
Drops below altitude 10° 21:34:52 10° 172° (S) 2,208 - -51.2°
Sets 21:37:41 0° 152° (SSE) 2,995 - -51.6°
